Username
Password
 
Info Terbaru :
  

Jackpot hanya dapat di beli di awal sebelum periode tersebut berjalan dan jika berhasil maka anda dapat melihat di sisi kiri bawah atau kiri atas akan terdapat notifikasi bahwa jackpot anda berhasil di beli.

Jika anda membeli jackpot di tengah permainan maka pembelian jackpot akan berlaku untuk periode selanjutnya.

Jackpot Winner Domino

Ikutilah global jackpot yang tersedia di system kami, dengan system jackpot terbaru dan pertama di indonesia, anda dapat membeli jackpot dengan harga 100 rupiah saja dan menangkan hadiahnya hingga puluhan juta rupiah.

Jackpot bukanlah suatu keharusan untuk dibeli, namun kami memberikan suatu fitur tambahan untuk member tercinta dari www.menangdewapoker.com.

Terdapat tiga pilihan harga jackpot yang bisa anda beli yaitu :100,500 dan 1000 rupiah.

Hadiah dari Multi jackpot system www.menangdewapoker.com

  1. Murni Kecil x 50 harga jackpot yang anda beli.
      (contoH:anda membeli 1000 maka:1000 X 50 = 50.000)
  2. Murni Besar x 50 harga jackpot yang anda beli
      (contoH:anda membeli 1000 maka:1000 X 50 = 50.000)
  3. BALAK x 100 harga jackpot yang anda beli
      (contoH:anda membeli 1000 maka:1000 X 100 = 100.000)
  4. ENAM DEWA x 6666 harga jackpot yang anda beli
      (contoH:anda membeli 1000 maka:1000 X 6666 = 6.666.000)

Demikian adalah penjelasan dari Multi Jackpot www.menangdewapoker.com terima kasih dan selamat bermain salam hoki dari kami


Note: Untuk mendapatkan jackpot di satu periode, pemain harus menyelesaikan permainan di periode tersebut, minimal 2 pemain. Jika semua pemain 'fold' jackpot tidak akan diturunkan.


Jackpot Winner

TOP ENAM DEWA
No. Tanggal Nama Price Win
1 21/02 07:21 TEMPALO murni enam 6,666,000
2 21/02 05:34 HUMAS25 murni enam 6,666,000
3 21/02 05:15 KENDENDES murni enam 6,666,000
4 21/02 05:06 DONIGANJA6 murni enam 666,600
5 21/02 01:20 PAS23 murni enam 3,333,000
TOP BALAK
No. Tanggal Nama Price Win
1 21/02 07:43 JOS70 balak 100,000
2 21/02 07:40 DOVAN_99 balak 100,000
3 21/02 07:27 IDB105 balak 10,000
4 21/02 07:25 TANIE898 balak 10,000
5 21/02 07:22 SEGI46 balak 10,000
LATEST JACKPOT
No. Tanggal Nama Price Win
1 21/02 07:45 FR1SH murni kecil 25,000
2 21/02 07:44 TOK0201 murni besar 50,000
3 21/02 07:43 CEMONGKU69 murni besar 5,000
4 21/02 07:43 CROTSEK murni besar 50,000
5 21/02 07:43 JOS70 balak 100,000
6 21/02 07:40 SANGADI94 murni besar 5,000
7 21/02 07:40 DOVAN_99 balak 100,000
8 21/02 07:39 FATIH015 murni kecil 25,000
9 21/02 07:38 BULL_77 murni kecil 50,000
10 21/02 07:38 HUMAS25 murni besar 50,000
11 21/02 07:36 BAOT99TROS murni besar 5,000
12 21/02 07:36 MF1R4S murni besar 50,000
13 21/02 07:36 SINGO23 murni kecil 5,000
14 21/02 07:35 ZAQQ135 murni besar 25,000
15 21/02 07:33 P45164LA99 murni besar 25,000
16 21/02 07:33 SIFON murni kecil 25,000
17 21/02 07:33 ZAQQ135 murni besar 25,000
18 21/02 07:33 RAF6699 murni besar 25,000
19 21/02 07:31 DAZAL_94 murni besar 5,000
20 21/02 07:30 SEBLAK777 murni kecil 50,000
21 21/02 07:27 ABHY09 murni kecil 25,000
22 21/02 07:27 IDB105 balak 10,000
23 21/02 07:25 TANIE898 balak 10,000
24 21/02 07:25 BADANG1212 murni besar 50,000
25 21/02 07:24 RAF6699 murni kecil 25,000
26 21/02 07:23 WXSYAPNYM5 murni kecil 5,000
27 21/02 07:22 SEGI46 balak 10,000
28 21/02 07:22 FATIH015 murni besar 25,000
29 21/02 07:21 SERGAP25 murni kecil 5,000
30 21/02 07:21 TEMPALO murni enam 6,666,000
31 21/02 07:20 DHEN_ZH4K4 balak 100,000
32 21/02 07:20 SAGAT86 murni besar 50,000
33 21/02 07:20 BACOT39 murni kecil 50,000
34 21/02 07:18 DARGO13 murni kecil 50,000
35 21/02 07:18 RAFID12CUT lucky99 25,000
36 21/02 07:16 PESO333 balak 100,000
37 21/02 07:15 LYCHEEE murni kecil 25,000
38 21/02 07:14 NIAAYAT murni besar 50,000
39 21/02 07:10 WAN1790 murni besar 25,000
40 21/02 07:10 OWI234 murni kecil 5,000
41 21/02 07:08 EMAHFUD murni kecil 50,000
42 21/02 07:07 RAFID12CUT murni kecil 25,000
43 21/02 07:04 IMAMPIJE murni besar 25,000
44 21/02 07:03 HUMAS25 murni kecil 50,000
45 21/02 07:02 ENAKLHOO murni besar 50,000
46 21/02 07:00 TIPU murni besar 25,000
47 21/02 06:59 EUY10 balak 100,000
48 21/02 06:58 RAF6699 balak 10,000
49 21/02 06:57 Z9LH7E3I7T murni kecil 50,000
50 21/02 06:57 ZEERROOO murni besar 50,000


Situs Poker Online
Dewapoker.com Hadir untuk semua pecinta permainan kartu poker online yang khususnya berada di asia. Dengan system teknology baru dan server kecepatan tinggi akan membuat permainan poker anda lebih seru dan menarik bersama teman2x anda maupun saingan anda. Cukup lakukan login dan langsung bermain tanpa download. Dewapoker.com dengan encrypsi server yang tinggi akan menjamin keamanan data para member.
Terms & Conditions Link Alternatif Cara Bermain Video Dewapoker
© Copyright 2019 Dewa Poker. All right reserved.